1318118428073,158.208
1318118488073,158.084
1318118548073,158.122
1318118608073,158.298
1318118668073,158.209
1318118728073,158.100
1318118788073,158.442
1318118848073,158.242
1318118908073,158.180
1318118968073,157.845
1318119028073,158.169
1318119088073,158.515
1318119148073,158.534
1318119208073,158.490
1318119268073,158.478
1318119328073,158.355
1318119388073,158.434
1318119448073,158.098
1318119508073,158.171
1318119568073,158.241
1318119628073,158.166
1318119688073,158.168
1318119748073,157.867
1318119808073,158.171
1318119868073,158.104
1318119928073,158.575
1318119988073,158.189
1318120048073,157.767
1318120108073,157.883
1318120168073,157.899
1318120228073,157.842
1318120288073,157.794
1318120348073,158.142
1318120408073,157.929
1318120468073,158.205
1318120528073,157.987
1318120588073,158.198
1318120648073,158.353
1318120708073,158.205
1318120768073,157.809
1318120828073,158.047
1318120888073,158.101
1318120948073,158.221
1318121008073,158.208
1318121068073,158.302
1318121128073,157.960
1318121188073,158.132
1318121248073,158.100
1318121308073,157.829
1318121368073,158.242
1318121428073,158.054
1318121488073,157.886
1318121548073,158.202
1318121608073,158.241
1318121668073,157.900
1318121728073,157.814
1318121788073,158.159
1318121848073,157.789
1318121908073,157.745
1318121968073,157.509
1318122028083,157.954
1318122088083,157.732
1318122148083,157.678
1318122208083,157.635
1318122268083,157.891
1318122328083,157.686
1318122388083,157.848
1318122448083,157.686
1318122508083,157.805
1318122568083,157.748
1318122628083,157.876
1318122688083,157.565
1318122748083,157.657
1318122808083,157.550
1318122868083,157.639
1318122928083,157.819
1318122988083,157.772
1318123048083,157.280
1318123108083,157.370
1318123168083,157.257
1318123228083,157.641
1318123288083,157.588
1318123348083,157.311
1318123408083,157.254
1318123468083,157.598
1318123528083,157.644
1318123588083,157.343
1318123648083,157.542
1318123708083,157.665
1318123768083,157.440
1318123828083,157.616
1318123888083,157.527
1318123948083,157.672
1318124008083,157.708
1318124068083,157.684
1318124128083,157.904
1318124188083,157.715
1318124248083,158.012
1318124308083,157.755
1318124368083,157.955
1318124428083,157.685
1318124488083,157.654
1318124548083,157.545
1318124608083,157.946
1318124668083,157.760
1318124728083,157.826
1318124788083,157.590
1318124848083,157.704
1318124908083,157.705
1318124968083,157.632
1318125028083,157.842
1318125088083,157.526
1318125148083,157.677
1318125208083,157.812
1318125268083,157.880
1318125328083,157.691
1318125388083,157.536
1318125448083,157.821
1318125508083,157.663
1318125568083,157.877
1318125628094,157.811
1318125688094,157.729
1318125748094,157.601
1318125808094,157.660
1318125868094,157.526
1318125928094,157.667
1318125988094,157.820
1318126048094,157.681
1318126108094,157.900
1318126168094,157.541
1318126228094,157.432
1318126288094,157.427
1318126348094,157.474
1318126408094,157.624
1318126468094,157.711
1318126528094,157.848
1318126588094,157.494
1318126648094,157.877
1318126708094,157.760
1318126768094,157.692
1318126828094,157.567
1318126888094,157.862
1318126948094,157.892
1318127008094,157.672
1318127068094,157.596
1318127128094,157.537
1318127188094,157.752
1318127248094,157.723
1318127308094,157.591
1318127368094,157.648
1318127428094,157.628
1318127488094,157.740
1318127548094,157.552
1318127608094,157.824
1318127668094,157.646
1318127728094,157.779
1318127788094,157.305
1318127848094,157.681
1318127908094,157.798
1318127968094,158.326
1318128028094,157.704
1318128088094,157.489
1318128148094,157.650
1318128208094,157.819
1318128268094,157.770
1318128328094,158.144
1318128388094,157.678
1318128448094,158.042
1318128508094,157.757
1318128568094,157.599
1318128628094,158.079
1318128688094,157.996
1318128748094,158.135
1318128808094,157.780
1318128868094,157.710
1318128928094,158.110
1318128988094,158.143
1318129048094,158.380
1318129108094,158.105
1318129168094,158.166
1318129228104,158.260
1318129288104,158.425
1318129348104,158.101
1318129408104,158.521
1318129468104,158.321
1318129528104,158.140
1318129588104,158.425
1318129648104,158.419
1318129708104,158.091
1318129768104,158.155
1318129828104,157.953
1318129888104,158.008
1318129948104,158.102
1318130008104,158.315
1318130068104,158.264
1318130128104,158.194
1318130188104,158.026
1318130248104,158.126
1318130308104,158.171
1318130368104,158.130
1318130428104,158.239
1318130488104,158.240
1318130548104,158.252
1318130608104,158.135
1318130668104,158.385
1318130728104,158.139
1318130788104,158.302
1318130848104,158.344
1318130908104,158.227
1318130968104,158.566
1318131028104,158.201
1318131088104,157.956
1318131148104,158.474
1318131208104,158.192
1318131268104,158.611
1318131328104,158.196
1318131388104,157.951
1318131448104,158.359
1318131508104,158.177
1318131568104,158.452
1318131628104,158.292
1318131688104,158.187
1318131748104,158.380
1318131808104,158.450
1318131868104,158.334
1318131928104,158.221
1318131988104,158.479
1318132048104,158.268
1318132108104,158.378
1318132168104,158.201
1318132228104,158.586
1318132288104,158.362
1318132348104,158.223
1318132408104,158.327
1318132468104,158.655
1318132528104,158.553
1318132588104,158.110
1318132648104,158.515
1318132708104,158.855
1318132768104,158.397
1318132828115,158.170
1318132888115,158.267
1318132948115,158.648
1318133008115,158.518
1318133068115,158.541
1318133128115,158.267
1318133188115,158.636
1318133248115,158.535
1318133308115,158.581
1318133368115,158.550
1318133428115,158.354
1318133488115,158.415
1318133548115,158.556
1318133608115,158.418
1318133668115,158.553
1318133728115,158.822
1318133788115,158.724
1318133848115,158.718
1318133908115,158.484
1318133968115,158.752
1318134028115,158.572
1318134088115,158.681
1318134148115,158.522
1318134208115,158.630
1318134268115,158.892
1318134328115,158.687
1318134388115,158.646
1318134448115,158.847
1318134508115,158.762
1318134568115,158.848
1318134628115,158.881
1318134688115,158.803
1318134748115,158.863
1318134808115,158.685
1318134868115,158.768
1318134928115,158.958
1318134988115,158.874
1318135048115,159.122
1318135108115,159.118
1318135168115,159.042
1318135228115,158.850
1318135288115,158.916
1318135348115,158.733
1318135408115,159.115
1318135468115,158.914
1318135528115,159.189
1318135588115,159.446
1318135648115,158.920
1318135708115,158.911
1318135768115,158.980
1318135828115,159.036
1318135888115,159.089
1318135948115,158.939
1318136008115,158.977
1318136068115,159.130
1318136128115,159.288
1318136188115,159.550
1318136248115,159.382
1318136308115,159.675
1318136368115,159.139
1318136428125,159.158
1318136488125,159.423
1318136548125,158.993
1318136608125,159.443
1318136668125,159.241
1318136728125,159.606
1318136788125,159.120
1318136848125,159.176
1318136908125,159.342
1318136968125,159.322
1318137028125,159.208
1318137088125,158.847
1318137148125,158.853
1318137208125,159.123
1318137268125,159.179
1318137328125,159.330
1318137388125,159.037
1318137448125,159.427
1318137508125,159.240
1318137568125,159.399
1318137628125,159.130
1318137688125,159.073
1318137748125,159.003
1318137808125,158.859
1318137868125,159.018
1318137928125,159.376
1318137988125,159.226
1318138048125,158.953
1318138108125,159.225
1318138168125,159.245
1318138228125,159.017
1318138288125,159.361
1318138348125,158.799
1318138408125,158.701
1318138468125,158.883
1318138528125,159.134
1318138588125,159.207
1318138648125,159.008
1318138708125,158.801
1318138768125,158.803
1318138828125,159.071
1318138888125,158.901
1318138948125,159.077
1318139008125,158.767
1318139068125,158.634
1318139128125,158.354
1318139188125,158.840
1318139248125,158.632
1318139308125,158.989
1318139368125,158.426
1318139428125,158.621
1318139488125,158.527
1318139548125,158.536
1318139608125,158.671
1318139668125,158.770
1318139728125,158.512
1318139788125,158.429
1318139848125,158.675
1318139908125,158.261
1318139968125,158.790
1318140028135,158.675
1318140088135,158.173
1318140148136,158.204
1318140208136,158.553
1318140268136,158.517
1318140328136,158.243
1318140388136,158.286
1318140448136,158.145
1318140508136,158.335
1318140568136,158.254
1318140628136,158.376
1318140688136,158.325
1318140748136,158.028
1318140808136,158.086
1318140868136,157.975
1318140928136,157.980
1318140988136,158.017
1318141048136,158.079
1318141108136,158.225
1318141168136,157.956
1318141228136,158.011
1318141288136,157.918
1318141348135,158.204
1318141408135,158.413
1318141468136,158.000
1318141528136,158.024
1318141588136,158.267
1318141648136,158.071
1318141708136,158.480
1318141768136,158.250
1318141828136,157.797
1318141888136,158.157
1318141948136,157.936
1318142008136,158.182
1318142068136,157.882
1318142128136,157.867
1318142188136,158.120
1318142248136,158.128
1318142308136,158.212
1318142368136,157.834
1318142428136,158.292
1318142488136,158.185
1318142548136,157.870
1318142608136,158.132
1318142668136,158.203
1318142728135,158.089
1318142788135,158.045
1318142848136,158.325
1318142908136,158.265
1318142968136,158.262
1318143028136,158.824
1318143088136,158.417
1318143148136,158.140
1318143208136,158.289
1318143268136,158.044
1318143328136,158.182
1318143388136,158.009
1318143448136,158.075
1318143508136,157.563
1318143568136,157.942
1318143628146,157.922
1318143688146,157.918
1318143748146,157.898
1318143808146,158.100
1318143868146,157.869
1318143928146,157.932
1318143988146,158.025
1318144048146,158.133
1318144108146,158.046
1318144168146,158.336
1318144228146,158.004
1318144288146,158.040
1318144348146,157.749
1318144408146,158.085
1318144468146,157.917
1318144528146,158.233
1318144588146,158.084
1318144648146,158.307
1318144708146,158.440
1318144768146,158.166
1318144828146,158.199
1318144888146,157.891
1318144948146,157.964
1318145008146,157.971
1318145068146,157.969
1318145128146,157.990
1318145188146,158.389
1318145248146,158.114
1318145308146,157.974
1318145368146,158.058
1318145428146,158.009
1318145488146,158.088
1318145548146,158.229
1318145608146,158.278
1318145668146,157.887
1318145728146,158.314
1318145788146,158.138
1318145848146,158.455
1318145908146,158.381
1318145968146,158.412
1318146028146,158.081
1318146088146,158.278
1318146148146,158.178
1318146208146,158.233
1318146268146,158.288
1318146328146,158.156
1318146388146,158.567
1318146448146,158.522
1318146508146,158.265
1318146568146,158.429
1318146628146,158.656
1318146688146,158.441
1318146748146,158.361
1318146808146,158.481
1318146868146,158.385
1318146928146,158.374
1318146988146,158.340
1318147048146,158.323
1318147108146,158.552
1318147168146,158.405
1318147228157,158.243
1318147288157,158.606
1318147348157,158.634
1318147408157,158.295
1318147468157,158.452
1318147528157,158.387
1318147588157,158.652
1318147648157,158.275
1318147708157,158.325
1318147768157,158.298
1318147828157,158.097
1318147888157,158.294
1318147948157,158.463
1318148008157,158.299
1318148068157,158.201
1318148128157,158.273
1318148188157,158.085
1318148248157,158.506
1318148308157,158.195
1318148368157,158.075
1318148428157,157.964
1318148488157,157.977
1318148548157,158.043
1318148608157,158.118
1318148668157,157.900
1318148728157,158.045
1318148788157,157.988
1318148848157,158.237
1318148908157,158.024
1318148968157,157.904
1318149028157,157.954
1318149088157,157.666
1318149148157,157.918
1318149208157,157.974
1318149268157,157.847
1318149328157,157.836
1318149388157,158.049
1318149448157,157.971
1318149508157,158.086
1318149568157,158.026
1318149628157,157.916
1318149688157,157.668
1318149748157,157.890
1318149808157,157.841
1318149868157,158.054
1318149928157,157.961
1318149988157,157.699
1318150048157,157.832
1318150108157,157.934
1318150168157,157.879
1318150228157,157.566
1318150288157,157.771
1318150348157,158.065
1318150408157,157.735
1318150468157,157.950
1318150528157,157.971
1318150588157,157.644
1318150648157,157.690
1318150708157,157.518
1318150768157,157.872
1318150828167,157.762
1318150888168,157.741
1318150948168,157.601
1318151008168,157.896
1318151068168,158.100
1318151128168,158.290
1318151188168,157.847
1318151248167,158.021
1318151308167,157.640
1318151368167,158.182
1318151428167,157.637
1318151488167,157.894
1318151548167,157.624
1318151608167,157.834
1318151668167,157.571
1318151728167,158.073
1318151788167,157.890
1318151848167,157.867
1318151908167,157.555
1318151968167,158.015
1318152028167,157.775
1318152088167,157.803
1318152148167,157.707
1318152208168,157.703
1318152268168,157.840
1318152328168,157.865
1318152388168,157.960
1318152448168,157.724
1318152508168,157.992
1318152568167,157.866
1318152628167,157.745
1318152688167,157.847
1318152748167,157.933
1318152808167,157.864
1318152868167,157.662
1318152928167,157.724
1318152988167,157.705
1318153048167,158.001
1318153108167,158.068
1318153168167,157.583
1318153228168,157.833
1318153288167,157.577
1318153348167,157.625
1318153408167,157.800
1318153468167,157.630
1318153528167,157.943
1318153588168,158.054
1318153648168,158.117
1318153708168,157.782
1318153768168,158.131
1318153828168,157.779
1318153888168,157.803
1318153948167,157.807
1318154008167,157.683
1318154068167,157.729
1318154128167,157.865
1318154188167,157.801
1318154248167,157.810
1318154308167,157.871
1318154368167,157.733
1318154428178,157.585
1318154488178,157.675
1318154548178,158.105
1318154608178,158.349
1318154668178,157.407
1318154728178,157.958
1318154788178,158.121
1318154848178,157.694
1318154908178,158.036
1318154968178,158.033
1318155028178,157.922
1318155088178,157.841
1318155148178,157.802
1318155208178,157.565
1318155268178,157.721
1318155328178,157.836
1318155388178,157.735
1318155448178,157.749
1318155508178,157.638
1318155568178,157.641
1318155628178,157.831
1318155688178,157.565
1318155748178,157.782
1318155808178,157.503
1318155868178,157.316
1318155928178,157.357
1318155988178,157.984
1318156048178,157.451
1318156108178,157.548
1318156168178,157.653
1318156228178,157.426
1318156288178,157.400
1318156348178,157.510
1318156408178,157.514
1318156468178,157.626
1318156528178,157.814
1318156588178,157.558
1318156648178,157.383
1318156708178,157.574
1318156768178,157.613
1318156828178,157.576
1318156888178,157.691
1318156948178,157.735
1318157008178,157.450
1318157068178,157.436
1318157128178,157.295
1318157188178,157.592
1318157248178,157.624
1318157308178,157.416
1318157368178,157.745
1318157428178,157.235
1318157488178,157.637
1318157548178,157.427
1318157608178,157.447
1318157668178,157.625
1318157728178,157.542
1318157788178,157.135
1318157848178,157.487
1318157908178,157.492
1318157968178,157.786
1318158028189,157.522
1318158088189,157.532
1318158148189,157.567
1318158208189,157.125
1318158268189,157.526
1318158328189,157.571
1318158388189,157.444
1318158448189,157.781
1318158508189,157.523
1318158568189,157.123
1318158628189,157.456
1318158688189,157.309
1318158748189,157.407
1318158808189,157.619
1318158868189,157.480
1318158928189,157.228
1318158988189,157.550
1318159048189,157.743
1318159108189,157.515
1318159168189,157.678
1318159228189,157.783
1318159288189,157.426
1318159348189,157.448
1318159408189,157.441
1318159468189,157.390
1318159528189,157.498
1318159588189,157.826
1318159648189,157.437
1318159708189,157.576
1318159768189,157.555
1318159828189,157.615
1318159888189,157.701
1318159948189,157.821
1318160008189,158.297
1318160068189,157.639
1318160128189,157.632
1318160188189,157.747
1318160248189,157.728
1318160308189,157.869
1318160368189,157.564
1318160428189,157.598
1318160488189,157.705
1318160548189,157.564
1318160608189,157.791
1318160668189,157.568
1318160728189,157.710
1318160788189,157.889
1318160848189,157.782
1318160908189,157.892
1318160968189,157.811
1318161028189,157.777
1318161088189,157.788
1318161148189,158.053
1318161208189,158.198
1318161268189,157.880
1318161328189,158.068
1318161388189,157.798
1318161448189,158.074
1318161508189,158.263
1318161568189,158.071
1318161628201,158.033
1318161688201,158.220
1318161748201,157.987
1318161808201,157.988
1318161868201,158.166
1318161928201,157.920
1318161988201,158.038
1318162048201,158.147
1318162108201,158.120
1318162168201,158.151
1318162228201,158.237
1318162288201,158.348
1318162348201,158.298
1318162408201,158.213
1318162468201,158.273
1318162528201,158.527
1318162588201,158.416
1318162648201,158.567
1318162708201,158.396
1318162768201,158.139
1318162828201,158.372
1318162888201,158.511
1318162948201,158.351
1318163008201,158.969
1318163068201,158.755
1318163128201,158.689
1318163188201,158.887
1318163248201,158.822
1318163308201,158.765
1318163368201,158.860
1318163428201,158.522
1318163488201,158.663
1318163548201,158.624
1318163608201,159.132
1318163668201,158.873
1318163728201,159.137
1318163788201,159.113
1318163848201,158.627
1318163908201,158.964
1318163968201,159.169
1318164028201,158.910
1318164088201,158.853
1318164148201,158.935
1318164208201,158.881
1318164268201,159.154
1318164328201,159.215
1318164388201,159.132
1318164448201,159.386
1318164508201,159.080
1318164568201,159.295
1318164628201,159.090
1318164688201,159.144
1318164748201,159.009
1318164808201,159.613
1318164868201,159.188
1318164928201,159.240
1318164988201,159.176
1318165048201,159.131
1318165108201,159.326
1318165168201,159.465
1318165228212,159.209
1318165288212,159.134
1318165348212,159.306
1318165408212,159.440
1318165468212,159.514
1318165528212,159.637
1318165588212,159.296
1318165648212,159.582
1318165708212,159.214
1318165768212,159.254
1318165828212,159.415
1318165888212,159.390
1318165948212,159.226
1318166008212,159.462
1318166068212,159.123
1318166128212,159.365
1318166188212,159.341
1318166248212,159.375
1318166308212,159.367
1318166368212,159.386
1318166428212,159.411
1318166488212,158.945
1318166548212,159.319
1318166608212,158.838
1318167748212,159.532
1318167808212,160.041
1318167868212,159.917
1318167928212,159.584
1318167988212,159.604
1318168048212,159.817
1318168108212,159.526
1318168168212,160.085
1318168228212,159.525
1318168288212,159.722
1318168348212,159.670
1318168408212,159.815
1318168468212,159.645
1318168528212,159.648
1318168588212,159.312
1318168648212,159.458
1318168708212,159.922
1318168768212,159.533
1318168828224,159.571
1318168888224,159.577
1318168948224,159.677
1318169008224,159.691
1318169068224,159.806
1318169128224,159.731
1318169188224,159.785
1318169248224,159.559
1318169308224,159.724
1318169368224,159.339
1318169428224,159.894
1318169488224,159.766
1318169548224,159.606
1318169608224,159.850
1318169668224,159.792
1318169728224,159.857
1318169788224,159.699
1318169848224,159.273
1318169908224,159.810
1318169968224,159.594
1318170028224,159.892
1318170088224,159.385
1318170148224,159.643
1318170208224,159.843
1318170268224,159.524
1318170328224,159.506
1318170388224,159.746
1318170448224,159.527
1318170508224,159.512
1318170568224,159.605
1318170628224,159.775
1318170688224,159.582
1318170748224,159.487
1318170808224,159.489
1318170868224,159.779
1318170928224,159.579
1318170988224,159.932
1318171048224,159.753
1318171108224,160.068
1318171168224,159.628
1318171228224,159.618
1318171288224,159.615
1318171348224,159.840
1318171408224,160.166
1318171468224,159.567
1318171528224,159.374
1318171588224,159.546
1318171648224,159.390
1318171708224,159.602
1318171768224,159.390
1318171828224,159.766
1318171888224,159.439
1318171948224,159.251
1318172008224,159.554
1318172068224,159.446
1318172128224,159.242
1318172188224,159.099
1318172248224,159.381
1318172308224,159.354
1318172368224,159.339
1318172428236,159.583
1318172488236,159.640
1318172548236,159.441
1318172608236,159.749
1318172668236,159.329
1318172728236,159.501
1318172788236,159.482
1318172848236,159.175
1318172908236,159.558
1318172968236,159.572
1318173028236,159.608
1318173088236,159.499
1318173148236,159.575
1318173208236,159.433
1318173268236,159.598
1318173328236,159.391
1318173388236,159.574
1318173448236,159.776
1318173508236,159.536
1318173568236,159.487
1318173628236,159.528
1318173688236,159.475
1318173748236,159.738
1318173808236,159.505
1318173868236,159.689
1318173928236,159.653
1318173988236,159.799
1318174048236,159.809
1318174108236,159.553
1318174168236,159.658
1318174228236,159.642
1318174288236,159.467
1318174348236,159.534
1318174408236,159.490
1318174468236,159.476
1318174528236,159.535
1318174588236,159.706
1318174648236,159.808
1318174708236,159.707
1318174768236,159.911
1318174828236,159.359
1318174888236,159.429
1318174948236,159.324
1318175008236,159.586
1318175068236,160.045
1318175128236,159.703
1318175188236,159.771
1318175248236,159.954
1318175308236,159.962
1318175368236,159.787
1318175428236,159.785
1318175488236,159.524
1318175548236,159.526
1318175608236,159.678
1318175668236,159.769
1318175728236,159.534
1318175788236,159.758
1318175848236,159.742
1318175908236,159.960
1318175968236,159.882
1318176028248,159.885
1318176088248,159.921
1318176148248,159.612
1318176208248,159.963
1318176268248,159.710
1318176328248,160.052
1318176388248,159.823
1318176448248,160.119
1318176508248,159.600
1318176568248,160.239
1318176628248,160.083
1318176688248,159.861
1318176748248,160.090
1318176808248,159.861
1318176868248,160.104
1318176928248,160.221
1318176988248,159.918
1318177048248,159.633
1318177108248,159.907
1318177168248,159.915
1318177228248,160.010
1318177288248,160.237
1318177348248,159.807
1318177408248,160.066
1318177468248,160.032
1318177528248,160.200
1318177588248,160.253
1318177648248,160.181
1318177708248,159.872
1318177768248,160.050
1318177828248,160.030
1318177888248,160.378
1318177948248,160.064
1318178008248,160.034
1318178068248,160.285
1318178128248,159.873
1318178188248,160.343
1318178248248,160.318
1318178308248,160.142
1318178368248,160.432
1318178428248,159.941
1318178488248,160.121
1318178548248,159.886
1318178608248,159.777
1318178668248,159.989
1318178728248,160.001
1318178788248,160.638
1318178848248,160.220
1318178908248,160.126
1318178968248,159.952
1318179028248,160.394
1318179088248,160.009
1318179148248,160.103
1318179208248,160.196
1318179268248,160.084
1318179328248,160.146
1318179388248,160.070
1318179448248,160.282
1318179508248,160.111
1318179568248,160.132
1318179628260,159.730
1318179688260,159.785
1318179748260,160.169
1318179808260,159.882
1318179868260,159.577
1318179928260,159.780
1318179988260,159.852
1318180048260,159.925
1318180108260,159.828
1318180168260,160.113
1318180228260,159.954
1318180288260,159.770
1318180348260,159.937
1318180408260,159.869
1318180468260,159.674
1318180528260,159.735
1318180588260,159.891
1318180648260,159.321
1318180708260,159.816
1318180768260,159.746
1318180828260,159.951
1318180888260,160.007
1318180948260,159.820
1318181008260,159.970
1318181068260,159.706
1318181128260,160.293
1318181188260,159.984
1318181248260,160.117
1318181308260,159.696
1318181368260,159.766
1318181428260,159.889
1318181488260,160.021
1318181548260,160.035
1318181608260,159.740
1318181668260,160.021
1318181728260,159.896
1318181788260,159.948
1318181848260,159.945
1318181908260,159.959
1318181968260,160.224
1318182028260,159.700
1318182088260,159.859
1318182148260,160.070
1318182208260,160.082
1318182268260,159.991
1318182328260,159.938
1318182388260,160.105
1318182448260,160.051
1318182508260,159.881
1318182568260,160.173
1318182628260,160.065
1318182688260,160.053
1318182748260,159.879
1318182808260,160.146
1318182868260,160.067
1318182928260,160.195
1318182988260,159.840
1318183048260,159.910
1318183108260,159.941
1318183168260,160.031
1318183228273,160.175
1318183288273,160.183
1318183348273,160.121
1318183408273,160.161
1318183468273,160.046
1318183528273,159.964
1318183588273,160.124
1318183648273,159.977
1318183708273,160.242
1318183768273,160.205
1318183828273,160.211
1318183888273,160.267
1318183948273,159.980
1318184008273,160.037
1318184068273,160.246
1318184128273,160.143
1318184188273,160.414
1318184248273,160.401
1318184308273,160.505
1318184368273,160.281
1318184428273,160.471
1318184488273,160.499
1318184548273,160.539
1318184608273,160.373
1318184668273,160.762
1318184728273,160.700
1318184788273,160.427
1318184848273,160.763